�������r�C�����j�^�v���󋵏��
Date,Time,5�C6���@���p�r�C��,����,����(m/s)
2021/07/25,00:00,3.9,��쐼,3.1
2021/07/25,00:10,3.8,��쐼,2.6
2021/07/25,00:20,3.9,��쐼,3.3
2021/07/25,00:30,4.0,��,2.9
2021/07/25,00:40,3.9,��,2.5
2021/07/25,00:50,3.7,��,2.3
2021/07/25,01:00,3.8,��,2.3
2021/07/25,01:10,3.8,��,2.0
2021/07/25,01:20,3.9,��,1.7
2021/07/25,01:30,3.7,��,1.7
2021/07/25,01:40,3.9,��쐼,1.9
2021/07/25,01:50,3.7,��,2.2
2021/07/25,02:00,3.9,��,2.3
2021/07/25,02:10,3.7,��,2.5
2021/07/25,02:20,3.9,��,2.0
2021/07/25,02:30,3.7,��,2.0
2021/07/25,02:40,4.0,��,1.5
2021/07/25,02:50,4.0,��,1.4
2021/07/25,03:00,3.7,��,2.0
2021/07/25,03:10,3.8,��,1.7
2021/07/25,03:20,4.0,��,2.2
2021/07/25,03:30,3.8,��,1.7
2021/07/25,03:40,3.8,��,1.5
2021/07/25,03:50,3.9,��쐼,0.9
2021/07/25,04:00,3.9,��쐼,0.8
2021/07/25,04:10,3.8,��쐼,0.9
2021/07/25,04:20,3.7,-,CALM
2021/07/25,04:30,3.8,��,0.6
2021/07/25,04:40,3.9,-,CALM
2021/07/25,04:50,4.0,-,CALM
2021/07/25,05:00,3.9,-,CALM
2021/07/25,05:10,3.8,-,CALM
2021/07/25,05:20,4.0,-,CALM
2021/07/25,05:30,3.8,-,CALM
2021/07/25,05:40,3.8,�k�k��,0.8
2021/07/25,05:50,3.9,-,CALM
2021/07/25,06:00,3.8,-,CALM
2021/07/25,06:10,3.8,-,CALM
2021/07/25,06:20,3.9,-,CALM
2021/07/25,06:30,3.8,�k�k��,0.9
2021/07/25,06:40,3.9,�k�k��,0.6
2021/07/25,06:50,4.0,-,CALM
2021/07/25,07:00,3.9,-,CALM
2021/07/25,07:10,3.9,�쓌,1.1
2021/07/25,07:20,3.7,���쓌,1.5
2021/07/25,07:30,3.9,��,1.5
2021/07/25,07:40,3.8,��,1.2
2021/07/25,07:50,3.9,���k��,1.1
2021/07/25,08:00,3.8,���k��,0.8
2021/07/25,08:10,3.8,���쓌,1.7
2021/07/25,08:20,3.8,���쓌,1.5
2021/07/25,08:30,3.9,���쓌,1.5
2021/07/25,08:40,3.8,���쓌,2.0
2021/07/25,08:50,4.0,���쓌,1.7
2021/07/25,09:00,3.9,���쓌,2.6
2021/07/25,09:10,4.0,��,2.3
2021/07/25,09:20,3.8,���쓌,2.5
2021/07/25,09:30,3.9,���쓌,2.8
2021/07/25,09:40,3.9,���쓌,3.0
2021/07/25,09:50,3.8,�쓌,3.1
2021/07/25,10:00,3.9,���쓌,3.1
2021/07/25,10:10,3.8,���쓌,3.0
2021/07/25,10:20,3.7,���쓌,2.8
2021/07/25,10:30,3.8,���쓌,3.1
2021/07/25,10:40,4.0,���쓌,2.6
2021/07/25,10:50,3.9,���쓌,2.8
2021/07/25,11:00,3.8,���쓌,2.6
2021/07/25,11:10,3.8,���쓌,2.9
2021/07/25,11:20,3.8,���쓌,2.6
2021/07/25,11:30,3.8,���쓌,2.8
2021/07/25,11:40,4.0,�쓌,3.5
2021/07/25,11:50,3.8,���쓌,3.1
2021/07/25,12:00,3.8,��,3.1
2021/07/25,12:10,3.7,���쓌,3.0
2021/07/25,12:20,3.8,���쓌,3.4
2021/07/25,12:30,3.7,���쓌,3.1
2021/07/25,12:40,3.7,��,3.4
2021/07/25,12:50,3.8,���쓌,2.9
2021/07/25,13:00,3.6,�쓌,3.5
2021/07/25,13:10,3.9,���쓌,2.8
2021/07/25,13:20,3.7,���쓌,4.0
2021/07/25,13:30,3.9,�쓌,3.1
2021/07/25,13:40,3.9,�쓌,3.7
2021/07/25,13:50,3.7,���쓌,2.3
2021/07/25,14:00,3.9,���쓌,3.0
2021/07/25,14:10,4.0,���쓌,3.8
2021/07/25,14:20,3.6,�쓌,3.2
2021/07/25,14:30,3.9,���쓌,2.8
2021/07/25,14:40,3.8,���쓌,3.4
2021/07/25,14:50,4.0,�쓌,3.5
2021/07/25,15:00,3.7,�쓌,3.3
2021/07/25,15:10,4.0,�쓌,3.9
2021/07/25,15:20,3.9,���쓌,3.5
2021/07/25,15:30,3.9,���쓌,3.0
2021/07/25,15:40,3.9,�쓌,2.8
2021/07/25,15:50,3.7,�쓌,3.4
2021/07/25,16:00,3.8,�쓌,3.3
2021/07/25,16:10,4.0,�쓌,3.2
2021/07/25,16:20,4.0,�쓌,3.4
2021/07/25,16:30,3.7,�쓌,2.6
2021/07/25,16:40,3.8,��쓌,2.5
2021/07/25,16:50,3.8,�쓌,2.9
2021/07/25,17:00,3.6,��쓌,2.3
2021/07/25,17:10,3.9,�쓌,2.8
2021/07/25,17:20,3.9,���쓌,2.6
2021/07/25,17:30,3.8,���쓌,2.6
2021/07/25,17:40,3.7,���쓌,2.8
2021/07/25,17:50,3.8,��쓌,2.6
2021/07/25,18:00,3.8,��쓌,2.9
2021/07/25,18:10,3.7,�쓌,2.5
2021/07/25,18:20,3.8,�쓌,3.4
2021/07/25,18:30,3.9,��쓌,3.0
2021/07/25,18:40,4.0,�쓌,2.5
2021/07/25,18:50,3.7,�쓌,2.0
2021/07/25,19:00,3.8,��,2.8
2021/07/25,19:10,3.8,��쓌,2.6
2021/07/25,19:20,4.0,�쓌,2.3
2021/07/25,19:30,4.0,��쓌,1.9
2021/07/25,19:40,3.8,��쓌,2.0
2021/07/25,19:50,3.8,��쓌,2.0
2021/07/25,20:00,3.6,��쓌,1.7
2021/07/25,20:10,3.8,��,1.5
2021/07/25,20:20,3.8,��쓌,1.4
2021/07/25,20:30,3.9,��쓌,1.7
2021/07/25,20:40,3.8,��쓌,1.4
2021/07/25,20:50,3.9,��,1.2
2021/07/25,21:00,3.8,��,1.5
2021/07/25,21:10,3.9,��,1.1
2021/07/25,21:20,3.8,��,0.9
2021/07/25,21:30,3.9,��쓌,0.6
2021/07/25,21:40,4.0,�쓌,0.6
2021/07/25,21:50,3.8,-,CALM
2021/07/25,22:00,3.9,�k��,0.6
2021/07/25,22:10,3.9,�k�k��,1.2
2021/07/25,22:20,3.7,�k,0.9
2021/07/25,22:30,3.9,�k�k��,1.2
2021/07/25,22:40,3.9,�k�k��,1.7
2021/07/25,22:50,3.9,�k�k��,2.3
2021/07/25,23:00,3.9,�k�k��,2.8
2021/07/25,23:10,3.9,�k�k��,2.5
2021/07/25,23:20,3.8,�k,1.7
2021/07/25,23:30,3.7,�k,1.5
2021/07/25,23:40,3.9,�k�k��,2.3
2021/07/25,23:50,3.8,�k�k��,4.1
